Regional Weather Roundup
Issued by NWS

Home | Current Version | Previous Version | Text Only | Print | Product List | Glossary On
Versions: 1 2 3 4 5 6 7 8 9 10 11 12 13 14 15 16 17 18 19 20 21 22 23 24 25 26 27 28 29 30 31 32 33 34 35 36 37 38 39 40 41 42 43 44 45 46 47 48 49 50
000
ASUS43 KMKX 281511
RWRWI

WISCONSIN REGIONAL WEATHER ROUNDUP
NATIONAL WEATHER SERVICE MILWAUKEE/SULLIVAN WI
1000 AM CDT SUN MAY 28 2017

NOTE: "FAIR" INDICATES FEW OR NO CLOUDS BELOW 12,000 FEET WITH NO
SIGNIFICANT WEATHER AND/OR OBSTRUCTIONS TO VISIBILITY.

WIZ001-002-006>008-014>016-023>028-281600-
NORTHWEST WISCONSIN

CITY           SKY/WX    TMP DP  RH WIND       PRES   REMARKS
SUPERIOR ARPT  NOT AVBL
ASHLAND        LGT RAIN  58  52  80 W9        29.67S
HAYWARD        CLOUDY    56  52  86 CALM      29.68S
SIREN          SUNNY     62  46  57 W15G21    29.70S
CUMBERLAND     MOSUNNY   61  48  63 SW13      29.70S
RICE LAKE      MOSUNNY   62  50  63 SW9       29.71S
CHETEK         CLOUDY    62  51  66 W6        29.70S
LADYSMITH      MOSUNNY   65  53  67 S10       29.71F
EAU CLAIRE     MOSUNNY   66  52  60 SW13G20   29.70F
MENOMONIE      SUNNY     65  51  59 SW10      29.71F
NEW RICHMOND   MOSUNNY   63  44  51 W14G22    29.72S
OSCEOLA        PTSUNNY   63  48  58 W15       29.75S
$$

WIZ003>005-009-010-017-018-281600-
NORTH CENTRAL WISCONSIN

CITY           SKY/WX    TMP DP  RH WIND       PRES   REMARKS
MANITOWISH WTR CLOUDY    60  53  79 S8        29.70F
ARBOR VITAE    MOSUNNY   62  50  66 S7        29.70F
WOODRUFF       MOSUNNY   62  50  66 S7        29.70F
RHINELANDER    MOSUNNY   62  51  67 S5        29.73F
EAGLE RIVER    SUNNY     60  51  73 SE6       29.71F
LAND O LAKES   MOSUNNY   60  52  76 SE5       29.73F
PHILLIPS       PTSUNNY   61  51  71 S7        29.69F
TOMAHAWK       SUNNY     63  52  69 CALM      29.72F
MEDFORD        SUNNY     62  52  68 S10       29.72F
MERRILL        SUNNY     62  52  69 SE5       29.73F
$$

WIZ029-030-035-036-043>047-281600-
CENTRAL WISCONSIN

CITY           SKY/WX    TMP DP  RH WIND       PRES   REMARKS
WAUSAU         SUNNY     62  53  72 S6        29.72F
MOSINEE        MOSUNNY   61  54  77 S3        29.75F
MARSHFIELD     SUNNY     65  52  62 S7        29.73F
STEVENS POINT  SUNNY     60  53  78 CALM      29.75F
WAUPACA        MOSUNNY   65  55  70 CALM      29.76F
WAUTOMA        PTSUNNY   63  56  78 S5        29.76F
WISC RAPIDS    SUNNY     64  53  67 SE5       29.76F
CAMP DOUGLAS   SUNNY     66  51  58 S6        29.75F
$$

WIZ011>013-019>022-031-037>040-048>050-281600-
NORTHEAST WISCONSIN

CITY           SKY/WX    TMP DP  RH WIND       PRES   REMARKS
ANTIGO         MOSUNNY   60  53  79 CALM      29.74F
SHAWANO        CLOUDY    61  55  81 CALM      29.75F
OCONTO         CLOUDY    57  56  96 S3        29.76S
STURGEON BAY   RAIN      57  55  93 SW5       29.76F
GREEN BAY      RAIN      57  57 100 S6        29.76F FOG
MANITOWOC      LGT RAIN  57  55  93 CALM      29.77F
APPLETON       DRIZZLE   57  55  94 VRB3      29.75F
CLINTONVILLE   MOSUNNY   61  52  72 CALM      29.75F
OSHKOSH        CLOUDY    58  55  90 CALM      29.76F
$$

WIZ032>034-041-042-053>061-281600-
SOUTHWEST WISCONSIN

CITY           SKY/WX    TMP DP  RH WIND       PRES   REMARKS
LA CROSSE      SUNNY     69  57  65 S7        29.74F
SPARTA         SUNNY     67  52  59 SW6       29.75F
VIROQUA        SUNNY     66  51  57 SW3       29.77F
BOSCOBEL       SUNNY     68  53  58 VRB3      29.77F
PRAIRIE DU CHI SUNNY     69  53  57 S5        29.77F
PLATTEVILLE    SUNNY     65  54  67 CALM      29.80S
$$

WIZ056-057-062-063-064-067-068-281600-
SOUTH CENTRAL WISCONSIN

CITY           SKY/WX    TMP DP  RH WIND       PRES   REMARKS
REEDSBURG      SUNNY     65  51  61 CALM      29.76F
BARABOO/DELLS  SUNNY     64  51  64 CALM      29.77F
LONE ROCK      SUNNY     67  54  63 W5        29.77F
MINERAL POINT  SUNNY     66  52  59 CALM      29.79S
MADISON        PTSUNNY   60  55  83 CALM      29.77S
MIDDLETON      MOSUNNY   62  56  81 CALM      29.79F
WATERTOWN      CLOUDY    58  58 100 NE5       29.77F
MONROE         CLOUDY    61  54  77 NE6       29.79S
JANESVILLE     PTSUNNY   59  59 100 NE9       29.77F
$$

WIZ051-052-058>065-066-070>072-281600-
SOUTHEAST WISCONSIN

CITY           SKY/WX    TMP DP  RH WIND       PRES   REMARKS
MILWAUKEE      RAIN      60  59  96 E6        29.76F FOG
WAUKESHA       HVY RAIN  57  57 100 N8        29.79R FOG
MILWAUKEE/TIMM RAIN      57  55  94 CALM      29.78S FOG
RACINE         LGT RAIN  60  57  89 N6        29.79S FOG
KENOSHA        LGT RAIN  61  58  90 N6        29.77S FOG
FOND DU LAC    LGT RAIN  58  55  90 SE5       29.77F
SHEBOYGAN      LGT RAIN  57  57 100 NW3       29.77F
WEST BEND      LGT RAIN  55  55 100 NW3       29.78S
JUNEAU         DRIZZLE   56  55  95 NE3       29.78F
$$

LSZ147-162-281600-
LAKE SUPERIOR

STATION/POSITION TIME  TEMP    WIND        PRES    WAVE
                       AIR SEA DIR/SP/G            HT/PER
                 (UTC) (F)     (DEG/KT/KT) (MB)    (FT/S)
W MID LAKE BUOY  1350   44 37  140/ 12/ 14 1004.9R   1
DEVILS ISLAND    1500   51     280/  8/  9 1004.8R
PORT WING        1440   58     200/  3/ 10 1004.7S
SAXON HARBOR     1440   57      80/  3/  6 1004.4S
$$

LMZ867-665-643>646-281600-
LAKE MICHIGAN

STATION/POSITION TIME  TEMP    WIND        PRES    WAVE
                       AIR SEA DIR/SP/G            HT/PER
                 (UTC) (F)     (DEG/KT/KT) (MB)    (FT/S)
CHAMBERS ISLAND  1440   57     190/  4/  8 1007.5R
N MID LAKE BUOY  1450   47 41  240/ 12/ 14 1008.0R   0
NORTHPORT PIER   1440   55     230/  2/  6 1007.5R
SISTER BAY       1406   53        CALM       N/A
ALGOMA LAKESHORE 1301          320/  3/  5   N/A
KEWAUNEE LAKESHO 1448   57     280/  5/  7 1007.6F
SHEBOYGAN LAKESH 1500   56     300/  4/  6 1007.8F
PORT WASHINGTON  1430   57     360/  3/  7 1008.8F
ATWATER BUOY     1409   53      20/  6/  6 1008.6R
MILWAUKEE LAKESH 1450   55      70/  8/  9   N/A
S MID LAKE BUOY  1350   55 50  120/  2/  2 1007.6R   0
KENOSHA   LAKESH 1500   61     350/  8/ 10 1008.1
$$

TC  - TEMPERATURE IN CELSIUS
VSB - VISIBILITY IN STATUTE MILES
WCI - WIND CHILL INDEX
HX  - HEAT INDEX




USA.gov is the U.S. government's official web portal to all federal, state and local government web resources and services.